Location: ?????????
(44.2517°N, 135.2292°E)
Time: 06:36:05
(UTC+00:00)

USA 229 - Pass Details

Date: 19 May 2025
Orbit: 872 x 1339 km, 63.4° (Epoch: 20 June)

Event Time Altitude Azimuth Distance (km) Brightness Sun altitude
Exits shadow 14:23:59 60° 150° (SSE) 1,078 3.4 -25.4°
Maximum altitude 14:24:34 63° 121° (ESE) 1,059 3.4 -25.4°
Drops below altitude 10° 14:31:06 10° 42° (NE) 2,846 6.4 -25.6°
Sets 14:33:53 0° 40° (NE) 3,875 7.3 -25.6°
